Tracking 22994 objects as of 8-May-2021
HD Live streaming from Space Station
objects crossing your sky now

INTELSAT 3-F8

Track INTELSAT 3-F8 now!
INTELSAT 3-F8 is classified as:


NORAD ID: 4478
Int'l Code: 1970-055A
Perigee: 33,883.7 km
Apogee: 36,603.9 km
Inclination: 0.9 °
Period: 1,408.1 minutes
Semi major axis: 41614 km
RCS: 2.5127 m2 (large)
Launch date: July 23, 1970
Source: International Telecommunications Satellite Organization (ITSO)
Launch site: AIR FORCE EASTERN TEST RANGE (AFETR)
aabbcc
Your satellite tracking list
Your tracking list is empty




NASA's NSSDC Master Catalog

Two Line Element Set (TLE):
1 04478U 70055A   21127.84438528 -.00000311  00000-0  00000-0 0  9991
2 04478   0.9303  74.5916 0326832  71.7991 300.9590  1.02265978103741
Source of the keplerian elements: AFSPC